< < Back
Terminal Aerodrome Forecast


Current Version              Previous Versions:   1  2  3  4  5  6  7  8  9  

Terminal Aerodrome Forecast

768
FTUS42 KGSP 020535
TAFGSP
TAF
KGSP 020535Z 0206/0306 00000KT P6SM SCT250
     FM021500 25003KT P6SM SCT045
     FM022100 21005KT P6SM BKN060
     FM030100 00000KT P6SM BKN070=

Latest METAR

226
SAUS70 KWBC 030900 RRB
MTRGSP
METAR KGSP 030853Z AUTO 36003KT 10SM CLR 24/21 A2997 RMK AO2 SLP135
T02390206 56006


USA.gov is the U.S. government's official web portal to all federal, state and local government web resources and services.